Showing default

SPACEEYE-T1, 63229

Orbit data source: Space-Track

SPACEEYE-T1, 63229 is a payload satellite owned by SatRec Initiative (KR) in SSO that was launched on Sat, 15 Mar 2025 UTC via an FALCON 9 launch vehicle from the Air Force Western Test Range (AFWTR). Payload-class satellites include a variety of spacecraft equipped with specific instruments for various scientific and technological missions. These include communications satellites like Starlink; space stations such as the ISS; scientific satellites like the Hubble; Earth observation satellites from companies like Planet Labs, Umbra, and HawkEye 360; GPS; miniature CubeSats for education and research; and military/defense satellites.

Loading next visibility...
Identifier
63229, 2025-052V
Orbit
SSO
Country
Flag of KRKR / SKOR
Related business
Manufacturer
SatRec Initiative
Mission
Operational Commercial Imaging
Bus & Motor
SPACEEYE-T, Unknown motor
Mass
700 kg wet, 700 kg dry
Launch date (UTC)
2025-03-15 (2 years ago)
Launch vehicle
FALCON 9
Launch site
Air Force Western Test Range (AFWTR)
Object type
Payload
Rocket body
Debris
Shape & HBR
Cyl + 2 Pan, 4.0 m
Radar Cross Section
7.637 m², Large (>1 m²)

Expand to show TLE details & history
Last TLE update: 10 hours ago

TLE from 10 hours ago
0 SPACEEYE-T1
1 63229U 25052V   26265.44443759  .00003090  00000-0  13357-3 0  9991
2 63229  97.3800 156.3982 0005298 149.6141 210.5404 15.23205531 84640
Epoch: 2026-09-22T10:39Z
TLE epoch observation values (Epoch: 2026-09-22T10:39:59.407Z)
Latitude
-0.00003°
Longitude
-4.90915°
Altitude
502.413 km
Speed
7.611 km/s
True Right ascension
10h 25m 35s
True Declination
0° 00' 00"
Sunlit
Object was in daylight at epoch
Visualization orbit readout
Latitude
Unknown
Longitude
Unknown
Altitude
Unknown
Speed
Unknown
Apparent Right ascension
Unknown
Apparent Declination
Unknown
Sunlit
N/A
Visualization observer readout
Local Sidereal Time
13:42:02
Azimuth
Unknown
Elevation
Unknown
Doppler factor
Unknown
Orbital elements
Apogee altitude
496.78 km
Perigee altitude
489.499 km
Semi-major axis
6,871.277 km
Eccentricity
0.00053
Inclination
97.38°
RAAN
156.3982°
Arg. of periapsis
149.6141°
True anomaly
210.50957°
Mean anomaly
210.5404°
Eccentric anomaly
210.52498°
Mean motion
3.81054 °/min
Orbital period
94.47 mins
BSTAR
0.00013357
Loading maneuver chart data...
Computing Atmospheric mass density...
Loading historical data...
Loading historical data...
Loading historical data...
Loading historical data...
Loading historical data...
Loading historical data...
Loading historical data...

Documentation

Showing up to 5 results
|